Test XHTML 1.0 Strict Page for WU-History Testing
Datos historicos para Xert
Diario Historicos para Junio 21, 2024 unidades:  Metrico    Imperiales   Ambos
« Anterior Dia
Proximo Dia »
Diario Semanal Mensual Anual Personalizado
  Max: Min: Promedio:
Temperatura: 26.0 °C 14.0 °C 20.1 °C
Punto de rocio: 16.0 °C 11.0 °C 13.1 °C
Humedad: 86% 43% 65%
Viento: 35km/h 0km/h 11.8km/h
Rafagas: 35km/h - -
Viento- - WSW
Presion: 1021.7 hPa 1017.6 hPa -
Lluvia: 0.00 mm    
Historical Graphs
 
 
Observa nuestra WebCam, mapa de radar de tormentas para Europa y mapa del radar de nuvosidad

Weather Camera

Radar Tormentas

Radar Sat24

Radar Meteociel





Condiciones meteorologicas Actuales:

Datos tabulados para Junio 21, 2024
Hora Temperatura Punto Rocio Presion Viento Viento Rafagas Humedad Tasa lluvia (1 hora) solar Condiciones
00:00 18.0 °C 13.0 °C 1017.6 hPa WNW 3 km/h 14 km/h 73% 0.00 mm 0.00 W/m2 unknown
00:05 17.0 °C 13.0 °C 1017.6 hPa NW 3 km/h 10 km/h 74% 0.00 mm 0.00 W/m2 unknown
00:14 18.0 °C 13.0 °C 1017.6 hPa WNW 8 km/h 14 km/h 73% 0.00 mm 0.00 W/m2 unknown
00:19 18.0 °C 13.0 °C 1018.0 hPa WNW 5 km/h 14 km/h 74% 0.00 mm 0.00 W/m2 unknown
00:24 17.0 °C 13.0 °C 1018.0 hPa WNW 6 km/h 10 km/h 75% 0.00 mm 0.00 W/m2 unknown
00:29 17.0 °C 13.0 °C 1018.0 hPa West 5 km/h 10 km/h 76% 0.00 mm 0.00 W/m2 unknown
00:34 17.0 °C 13.0 °C 1018.0 hPa WNW 10 km/h 11 km/h 75% 0.00 mm 0.00 W/m2 unknown
00:39 17.0 °C 13.0 °C 1018.0 hPa West 11 km/h 11 km/h 74% 0.00 mm 0.00 W/m2 unknown
00:44 18.0 °C 13.0 °C 1018.0 hPa WNW 13 km/h 14 km/h 73% 0.00 mm 0.00 W/m2 unknown
00:49 17.0 °C 13.0 °C 1018.0 hPa WNW 10 km/h 14 km/h 74% 0.00 mm 0.00 W/m2 unknown
00:54 17.0 °C 13.0 °C 1018.0 hPa West 10 km/h 13 km/h 74% 0.00 mm 0.00 W/m2 unknown
00:59 17.0 °C 13.0 °C 1018.0 hPa NW 8 km/h 13 km/h 75% 0.00 mm 0.00 W/m2 unknown
01:04 17.0 °C 13.0 °C 1018.3 hPa WNW 8 km/h 13 km/h 75% 0.00 mm 0.00 W/m2 unknown
01:08 17.0 °C 12.0 °C 1018.3 hPa WNW 10 km/h 16 km/h 74% 0.00 mm 0.00 W/m2 unknown
01:14 17.0 °C 13.0 °C 1018.0 hPa WNW 8 km/h 16 km/h 75% 0.00 mm 0.00 W/m2 unknown
01:19 17.0 °C 13.0 °C 1018.0 hPa WNW 10 km/h 13 km/h 75% 0.00 mm 0.00 W/m2 unknown
01:23 17.0 °C 13.0 °C 1018.0 hPa WNW 11 km/h 13 km/h 75% 0.00 mm 0.00 W/m2 unknown
01:29 17.0 °C 12.0 °C 1018.0 hPa WNW 13 km/h 14 km/h 74% 0.00 mm 0.00 W/m2 unknown
01:34 17.0 °C 13.0 °C 1018.0 hPa WNW 11 km/h 18 km/h 74% 0.00 mm 0.00 W/m2 unknown
01:39 17.0 °C 13.0 °C 1018.0 hPa WNW 10 km/h 18 km/h 75% 0.00 mm 0.00 W/m2 unknown
01:44 17.0 °C 13.0 °C 1018.0 hPa NW 8 km/h 10 km/h 75% 0.00 mm 0.00 W/m2 unknown
01:49 17.0 °C 13.0 °C 1018.0 hPa NW 10 km/h 14 km/h 76% 0.00 mm 0.00 W/m2 unknown
01:54 17.0 °C 13.0 °C 1018.0 hPa NW 14 km/h 19 km/h 76% 0.00 mm 0.00 W/m2 unknown
01:58 17.0 °C 12.0 °C 1018.0 hPa WNW 14 km/h 19 km/h 75% 0.00 mm 0.00 W/m2 unknown
02:04 17.0 °C 13.0 °C 1018.0 hPa WNW 14 km/h 18 km/h 75% 0.00 mm 0.00 W/m2 unknown
02:09 17.0 °C 13.0 °C 1018.0 hPa West 16 km/h 16 km/h 75% 0.00 mm 0.00 W/m2 unknown
02:14 17.0 °C 13.0 °C 1018.0 hPa WNW 14 km/h 16 km/h 74% 0.00 mm 0.00 W/m2 unknown
02:19 17.0 °C 13.0 °C 1018.0 hPa WNW 14 km/h 14 km/h 74% 0.00 mm 0.00 W/m2 unknown
02:24 17.0 °C 12.0 °C 1017.6 hPa West 10 km/h 10 km/h 73% 0.00 mm 0.00 W/m2 unknown
02:29 17.0 °C 13.0 °C 1017.6 hPa WNW 6 km/h 14 km/h 74% 0.00 mm 0.00 W/m2 unknown
02:34 17.0 °C 12.0 °C 1017.6 hPa NW 5 km/h 11 km/h 76% 0.00 mm 0.00 W/m2 unknown
02:39 16.0 °C 13.0 °C 1018.0 hPa WSW 2 km/h 5 km/h 78% 0.00 mm 0.00 W/m2 unknown
02:44 16.0 °C 12.0 °C 1018.0 hPa WNW 5 km/h 5 km/h 78% 0.00 mm 0.00 W/m2 unknown
02:49 16.0 °C 12.0 °C 1017.6 hPa NNE 5 km/h 5 km/h 78% 0.00 mm 0.00 W/m2 unknown
02:54 16.0 °C 12.0 °C 1018.0 hPa WNW 2 km/h 5 km/h 80% 0.00 mm 0.00 W/m2 unknown
02:59 15.0 °C 12.0 °C 1018.0 hPa Calm   5 km/h 81% 0.00 mm 0.00 W/m2 unknown
03:03 15.0 °C 12.0 °C 1018.0 hPa Calm     81% 0.00 mm 0.00 W/m2 unknown
03:09 15.0 °C 12.0 °C 1018.0 hPa Calm     81% 0.00 mm 0.00 W/m2 unknown
03:14 15.0 °C 12.0 °C 1018.0 hPa Calm     82% 0.00 mm 0.00 W/m2 unknown
03:19 15.0 °C 12.0 °C 1018.0 hPa NNE 6 km/h 6 km/h 82% 0.00 mm 0.00 W/m2 unknown
03:24 15.0 °C 12.0 °C 1018.0 hPa NW 2 km/h 6 km/h 82% 0.00 mm 0.00 W/m2 unknown
03:29 15.0 °C 12.0 °C 1018.0 hPa NW 3 km/h 6 km/h 82% 0.00 mm 0.00 W/m2 unknown
03:34 15.0 °C 12.0 °C 1018.0 hPa NW 3 km/h 3 km/h 82% 0.00 mm 0.00 W/m2 unknown
03:39 15.0 °C 12.0 °C 1018.0 hPa Calm   3 km/h 82% 0.00 mm 0.00 W/m2 unknown
03:44 15.0 °C 12.0 °C 1018.0 hPa NNW 2 km/h 2 km/h 83% 0.00 mm 0.00 W/m2 unknown
03:49 14.0 °C 12.0 °C 1018.0 hPa West 3 km/h 3 km/h 84% 0.00 mm 0.00 W/m2 unknown
03:53 14.0 °C 11.0 °C 1018.0 hPa Calm   3 km/h 84% 0.00 mm 0.00 W/m2 unknown
03:59 14.0 °C 11.0 °C 1018.0 hPa North 5 km/h 5 km/h 84% 0.00 mm 0.00 W/m2 unknown
04:04 14.0 °C 12.0 °C 1018.0 hPa West 2 km/h 5 km/h 85% 0.00 mm 0.00 W/m2 unknown
04:09 14.0 °C 11.0 °C 1018.0 hPa West 2 km/h 5 km/h 86% 0.00 mm 0.00 W/m2 unknown
04:14 14.0 °C 12.0 °C 1018.3 hPa Calm   2 km/h 86% 0.00 mm 0.00 W/m2 unknown
04:19 14.0 °C 11.0 °C 1018.0 hPa NNW 5 km/h 5 km/h 85% 0.00 mm 0.00 W/m2 unknown
04:24 14.0 °C 11.0 °C 1018.0 hPa NNE 6 km/h 6 km/h 84% 0.00 mm 0.00 W/m2 unknown
04:28 14.0 °C 11.0 °C 1018.3 hPa Calm   6 km/h 84% 0.00 mm 0.00 W/m2 unknown
04:34 14.0 °C 11.0 °C 1018.3 hPa NW 2 km/h 6 km/h 83% 0.00 mm 0.00 W/m2 unknown
04:39 14.0 °C 11.0 °C 1018.3 hPa Calm   5 km/h 83% 0.00 mm 0.00 W/m2 unknown
04:44 14.0 °C 11.0 °C 1018.3 hPa NNE 6 km/h 6 km/h 83% 0.00 mm 0.00 W/m2 unknown
04:49 14.0 °C 11.0 °C 1018.3 hPa North 6 km/h 10 km/h 82% 0.00 mm 0.00 W/m2 unknown
04:54 14.0 °C 11.0 °C 1018.3 hPa Calm   10 km/h 82% 0.00 mm 0.00 W/m2 unknown
04:59 15.0 °C 12.0 °C 1018.3 hPa WNW 10 km/h 10 km/h 81% 0.00 mm 0.00 W/m2 unknown
05:04 15.0 °C 12.0 °C 1018.3 hPa WNW 8 km/h 10 km/h 80% 0.00 mm 0.00 W/m2 unknown
05:08 16.0 °C 12.0 °C 1018.3 hPa WNW 6 km/h 14 km/h 78% 0.00 mm 0.00 W/m2 unknown
05:14 16.0 °C 12.0 °C 1018.3 hPa NW 10 km/h 14 km/h 78% 0.00 mm 0.00 W/m2 unknown
05:19 16.0 °C 12.0 °C 1018.3 hPa NNW 2 km/h 10 km/h 77% 0.00 mm 0.00 W/m2 unknown
05:24 16.0 °C 12.0 °C 1018.3 hPa WNW 8 km/h 8 km/h 77% 0.00 mm 0.00 W/m2 unknown
05:29 16.0 °C 12.0 °C 1018.3 hPa NW 11 km/h 14 km/h 77% 0.00 mm 0.00 W/m2 unknown
05:34 16.0 °C 12.0 °C 1018.3 hPa WNW 19 km/h 19 km/h 77% 0.00 mm 0.00 W/m2 unknown
05:39 16.0 °C 12.0 °C 1018.3 hPa NW 6 km/h 19 km/h 76% 0.00 mm 0.00 W/m2 unknown
05:44 16.0 °C 12.0 °C 1018.3 hPa NNW 6 km/h 19 km/h 76% 0.00 mm 0.00 W/m2 unknown
05:49 16.0 °C 12.0 °C 1018.3 hPa WNW 18 km/h 18 km/h 77% 0.00 mm 0.00 W/m2 unknown
05:53 16.0 °C 12.0 °C 1018.3 hPa NW 10 km/h 18 km/h 76% 0.00 mm 0.00 W/m2 unknown
05:59 16.0 °C 12.0 °C 1018.3 hPa WNW 5 km/h 18 km/h 75% 0.00 mm 0.00 W/m2 unknown
06:04 16.0 °C 12.0 °C 1018.3 hPa West 10 km/h 10 km/h 74% 0.00 mm 0.00 W/m2 unknown
06:05 16.0 °C 12.0 °C 1018.3 hPa West 2 km/h 10 km/h 74% 0.00 mm 0.00 W/m2 unknown
06:14 16.0 °C 12.0 °C 1018.6 hPa WNW 3 km/h 10 km/h 74% 0.00 mm 0.00 W/m2 unknown
06:19 16.0 °C 11.0 °C 1018.6 hPa NW 10 km/h 10 km/h 74% 0.00 mm 0.00 W/m2 unknown
06:24 16.0 °C 11.0 °C 1018.6 hPa WNW 8 km/h 10 km/h 74% 0.00 mm 0.00 W/m2 unknown
06:29 16.0 °C 11.0 °C 1018.6 hPa NW 14 km/h 14 km/h 74% 0.00 mm 0.00 W/m2 unknown
06:33 16.0 °C 11.0 °C 1018.6 hPa WNW 13 km/h 14 km/h 73% 0.00 mm 0.00 W/m2 unknown
06:39 17.0 °C 12.0 °C 1018.6 hPa WNW 18 km/h 19 km/h 73% 0.00 mm 0.00 W/m2 unknown
06:44 17.0 °C 12.0 °C 1018.6 hPa NW 5 km/h 19 km/h 73% 0.00 mm 0.00 W/m2 unknown
06:49 16.0 °C 11.0 °C 1018.6 hPa NNW 3 km/h 8 km/h 75% 0.00 mm 0.00 W/m2 unknown
06:54 16.0 °C 11.0 °C 1018.6 hPa NW 5 km/h 6 km/h 78% 0.00 mm 0.00 W/m2 unknown
06:59 15.0 °C 11.0 °C 1018.6 hPa SSW 3 km/h 5 km/h 78% 0.00 mm 0.00 W/m2 unknown
07:04 15.0 °C 11.0 °C 1018.6 hPa SW 6 km/h 6 km/h 78% 0.00 mm 0.00 W/m2 unknown
07:09 16.0 °C 11.0 °C 1018.6 hPa West 14 km/h 14 km/h 77% 0.00 mm 0.00 W/m2 unknown
07:14 16.0 °C 11.0 °C 1018.6 hPa WSW 6 km/h 16 km/h 75% 0.00 mm 0.00 W/m2 unknown
07:19 16.0 °C 11.0 °C 1018.6 hPa ENE 5 km/h 16 km/h 76% 0.00 mm 0.00 W/m2 unknown
07:24 16.0 °C 12.0 °C 1018.6 hPa SSE 6 km/h 16 km/h 77% 0.00 mm 0.00 W/m2 unknown
07:29 16.0 °C 12.0 °C 1018.6 hPa SW 10 km/h 10 km/h 77% 0.00 mm 0.00 W/m2 unknown
07:34 16.0 °C 12.0 °C 1018.6 hPa SSW 2 km/h 10 km/h 75% 0.00 mm 0.00 W/m2 unknown
07:39 16.0 °C 12.0 °C 1019.0 hPa East 5 km/h 6 km/h 76% 0.00 mm 0.00 W/m2 unknown
07:44 16.0 °C 12.0 °C 1019.0 hPa North 2 km/h 5 km/h 77% 0.00 mm 0.00 W/m2 unknown
07:49 16.0 °C 12.0 °C 1019.0 hPa Calm   5 km/h 76% 0.00 mm 0.00 W/m2 unknown
07:54 16.0 °C 12.0 °C 1019.0 hPa Calm   5 km/h 75% 0.00 mm 0.00 W/m2 unknown
07:58 17.0 °C 12.0 °C 1019.0 hPa Calm     75% 0.00 mm 0.00 W/m2 unknown
08:04 17.0 °C 12.0 °C 1019.0 hPa Calm     75% 0.00 mm 0.00 W/m2 unknown
08:09 17.0 °C 12.0 °C 1019.0 hPa East 5 km/h 5 km/h 75% 0.00 mm 0.00 W/m2 unknown
08:14 17.0 °C 12.0 °C 1019.0 hPa WNW 6 km/h 6 km/h 71% 0.00 mm 0.00 W/m2 unknown
08:19 18.0 °C 12.0 °C 1019.3 hPa NW 10 km/h 10 km/h 70% 0.00 mm 0.00 W/m2 unknown
08:24 18.0 °C 12.0 °C 1019.3 hPa WNW 19 km/h 19 km/h 68% 0.00 mm 0.00 W/m2 unknown
08:29 18.0 °C 12.0 °C 1019.3 hPa WNW 32 km/h 32 km/h 67% 0.00 mm 0.00 W/m2 unknown
08:34 18.0 °C 12.0 °C 1019.3 hPa West 18 km/h 32 km/h 67% 0.00 mm 0.00 W/m2 unknown
08:39 18.0 °C 12.0 °C 1019.3 hPa NW 18 km/h 21 km/h 66% 0.00 mm 0.00 W/m2 unknown
08:44 19.0 °C 12.0 °C 1019.3 hPa NW 11 km/h 21 km/h 66% 0.00 mm 0.00 W/m2 unknown
08:49 19.0 °C 12.0 °C 1019.3 hPa SW 3 km/h 10 km/h 65% 0.00 mm 0.00 W/m2 unknown
08:54 19.0 °C 12.0 °C 1019.3 hPa SE 5 km/h 10 km/h 66% 0.00 mm 0.00 W/m2 unknown
08:59 19.0 °C 12.0 °C 1019.6 hPa East 23 km/h 23 km/h 63% 0.00 mm 0.00 W/m2 unknown
09:04 19.0 °C 12.0 °C 1019.3 hPa NW 16 km/h 23 km/h 64% 0.00 mm 0.00 W/m2 unknown
09:09 19.0 °C 12.0 °C 1019.3 hPa SW 8 km/h 16 km/h 63% 0.00 mm 0.00 W/m2 unknown
09:14 20.0 °C 12.0 °C 1019.6 hPa SSE 6 km/h 16 km/h 64% 0.00 mm 0.00 W/m2 unknown
09:19 20.0 °C 12.0 °C 1019.6 hPa SSE 11 km/h 11 km/h 63% 0.00 mm 0.00 W/m2 unknown
09:24 20.0 °C 12.0 °C 1019.6 hPa South 8 km/h 13 km/h 62% 0.00 mm 0.00 W/m2 unknown
09:28 20.0 °C 12.0 °C 1019.6 hPa South 8 km/h 13 km/h 61% 0.00 mm 0.00 W/m2 unknown
09:34 20.0 °C 13.0 °C 1019.6 hPa SW 6 km/h 8 km/h 63% 0.00 mm 0.00 W/m2 unknown
09:39 20.0 °C 13.0 °C 1019.6 hPa SW 13 km/h 13 km/h 63% 0.00 mm 0.00 W/m2 unknown
09:44 20.0 °C 12.0 °C 1019.6 hPa NNE 16 km/h 16 km/h 61% 0.00 mm 0.00 W/m2 unknown
09:49 20.0 °C 12.0 °C 1019.6 hPa NW 19 km/h 19 km/h 62% 0.00 mm 0.00 W/m2 unknown
09:54 20.0 °C 12.0 °C 1019.6 hPa North 18 km/h 19 km/h 62% 0.00 mm 0.00 W/m2 unknown
09:59 20.0 °C 12.0 °C 1019.6 hPa NNW 14 km/h 21 km/h 61% 0.00 mm 0.00 W/m2 unknown
10:03 20.0 °C 12.0 °C 1020.0 hPa NNE 24 km/h 24 km/h 61% 0.00 mm 0.00 W/m2 unknown
10:09 20.0 °C 13.0 °C 1020.0 hPa NNW 24 km/h 24 km/h 62% 0.00 mm 0.00 W/m2 unknown
10:14 20.0 °C 12.0 °C 1020.0 hPa NNW 16 km/h 24 km/h 61% 0.00 mm 0.00 W/m2 unknown
10:18 20.0 °C 12.0 °C 1020.0 hPa WNW 18 km/h 26 km/h 61% 0.00 mm 0.00 W/m2 unknown
10:24 20.0 °C 12.0 °C 1020.3 hPa WNW 21 km/h 26 km/h 61% 0.00 mm 0.00 W/m2 unknown
10:29 20.0 °C 12.0 °C 1020.3 hPa WNW 23 km/h 29 km/h 61% 0.00 mm 0.00 W/m2 unknown
10:34 20.0 °C 13.0 °C 1020.3 hPa WNW 18 km/h 23 km/h 61% 0.00 mm 0.00 W/m2 unknown
10:39 20.0 °C 12.0 °C 1020.3 hPa WNW 21 km/h 21 km/h 60% 0.00 mm 0.00 W/m2 unknown
10:44 20.0 °C 13.0 °C 1020.7 hPa NW 14 km/h 21 km/h 61% 0.00 mm 0.00 W/m2 unknown
10:49 21.0 °C 13.0 °C 1020.7 hPa WNW 14 km/h 21 km/h 61% 0.00 mm 0.00 W/m2 unknown
10:54 21.0 °C 13.0 °C 1020.7 hPa NNW 11 km/h 14 km/h 60% 0.00 mm 0.00 W/m2 unknown
10:59 21.0 °C 13.0 °C 1020.7 hPa NNW 18 km/h 18 km/h 60% 0.00 mm 0.00 W/m2 unknown
11:04 21.0 °C 13.0 °C 1020.7 hPa NNW 16 km/h 19 km/h 59% 0.00 mm 0.00 W/m2 unknown
11:09 21.0 °C 13.0 °C 1020.7 hPa WNW 18 km/h 19 km/h 60% 0.00 mm 0.00 W/m2 unknown
11:14 21.0 °C 13.0 °C 1020.7 hPa NW 14 km/h 18 km/h 60% 0.00 mm 0.00 W/m2 unknown
11:19 21.0 °C 13.0 °C 1020.7 hPa North 16 km/h 18 km/h 60% 0.00 mm 0.00 W/m2 unknown
11:24 21.0 °C 13.0 °C 1020.7 hPa NNW 14 km/h 16 km/h 59% 0.00 mm 0.00 W/m2 unknown
11:29 22.0 °C 13.0 °C 1020.7 hPa NNW 18 km/h 18 km/h 59% 0.00 mm 0.00 W/m2 unknown
11:34 22.0 °C 13.0 °C 1020.7 hPa NW 16 km/h 18 km/h 58% 0.00 mm 0.00 W/m2 unknown
11:38 21.0 °C 13.0 °C 1020.7 hPa North 13 km/h 18 km/h 59% 0.00 mm 0.00 W/m2 unknown
11:44 22.0 °C 13.0 °C 1020.7 hPa West 16 km/h 16 km/h 59% 0.00 mm 0.00 W/m2 unknown
11:49 22.0 °C 13.0 °C 1020.7 hPa WNW 18 km/h 18 km/h 58% 0.00 mm 0.00 W/m2 unknown
11:54 22.0 °C 13.0 °C 1020.7 hPa NNW 27 km/h 27 km/h 57% 0.00 mm 0.00 W/m2 unknown
11:59 22.0 °C 13.0 °C 1020.3 hPa NW 24 km/h 27 km/h 57% 0.00 mm 0.00 W/m2 unknown
12:04 22.0 °C 13.0 °C 1020.3 hPa NNE 21 km/h 27 km/h 56% 0.00 mm 0.00 W/m2 unknown
12:14 23.0 °C 13.0 °C 1020.3 hPa NNW 18 km/h 21 km/h 56% 0.00 mm 0.00 W/m2 unknown
12:19 23.0 °C 13.0 °C 1020.3 hPa NW 23 km/h 23 km/h 54% 0.00 mm 0.00 W/m2 unknown
12:24 22.0 °C 13.0 °C 1020.3 hPa NW 21 km/h 32 km/h 54% 0.00 mm 0.00 W/m2 unknown
12:28 22.0 °C 13.0 °C 1020.3 hPa NNW 21 km/h 32 km/h 54% 0.00 mm 0.00 W/m2 unknown
12:34 23.0 °C 13.0 °C 1020.3 hPa NNW 18 km/h 26 km/h 54% 0.00 mm 0.00 W/m2 unknown
12:38 23.0 °C 13.0 °C 1020.3 hPa NNW 21 km/h 26 km/h 53% 0.00 mm 0.00 W/m2 unknown
12:44 23.0 °C 12.0 °C 1020.3 hPa WNW 32 km/h 32 km/h 52% 0.00 mm 0.00 W/m2 unknown
12:49 23.0 °C 12.0 °C 1020.3 hPa WNW 27 km/h 32 km/h 51% 0.00 mm 0.00 W/m2 unknown
12:54 23.0 °C 13.0 °C 1020.0 hPa NW 24 km/h 32 km/h 53% 0.00 mm 0.00 W/m2 unknown
12:59 23.0 °C 12.0 °C 1020.0 hPa North 27 km/h 27 km/h 50% 0.00 mm 0.00 W/m2 unknown
13:04 23.0 °C 13.0 °C 1020.0 hPa NW 24 km/h 29 km/h 51% 0.00 mm 0.00 W/m2 unknown
13:09 24.0 °C 13.0 °C 1020.0 hPa NNW 24 km/h 27 km/h 51% 0.00 mm 0.00 W/m2 unknown
13:14 24.0 °C 13.0 °C 1020.0 hPa NNW 35 km/h 35 km/h 50% 0.00 mm 0.00 W/m2 unknown
13:19 24.0 °C 13.0 °C 1020.0 hPa North 23 km/h 35 km/h 49% 0.00 mm 0.00 W/m2 unknown
13:24 24.0 °C 12.0 °C 1020.0 hPa NNW 24 km/h 24 km/h 48% 0.00 mm 0.00 W/m2 unknown
13:29 24.0 °C 13.0 °C 1020.0 hPa NW 23 km/h 27 km/h 49% 0.00 mm 0.00 W/m2 unknown
13:34 24.0 °C 12.0 °C 1020.0 hPa NNW 32 km/h 32 km/h 48% 0.00 mm 0.00 W/m2 unknown
13:39 24.0 °C 12.0 °C 1020.0 hPa NW 23 km/h 32 km/h 48% 0.00 mm 0.00 W/m2 unknown
13:44 24.0 °C 12.0 °C 1020.0 hPa North 26 km/h 32 km/h 47% 0.00 mm 0.00 W/m2 unknown
13:49 24.0 °C 12.0 °C 1020.0 hPa WNW 23 km/h 29 km/h 47% 0.00 mm 0.00 W/m2 unknown
13:54 24.0 °C 12.0 °C 1020.0 hPa NNW 26 km/h 29 km/h 46% 0.00 mm 0.00 W/m2 unknown
13:58 24.0 °C 12.0 °C 1019.6 hPa NW 27 km/h 27 km/h 46% 0.00 mm 0.00 W/m2 unknown
14:04 25.0 °C 13.0 °C 1019.6 hPa NW 26 km/h 27 km/h 47% 0.00 mm 0.00 W/m2 unknown
14:09 25.0 °C 13.0 °C 1019.6 hPa North 24 km/h 27 km/h 46% 0.00 mm 0.00 W/m2 unknown
14:14 25.0 °C 13.0 °C 1019.6 hPa North 19 km/h 24 km/h 46% 0.00 mm 0.00 W/m2 unknown
14:19 25.0 °C 13.0 °C 1019.6 hPa NW 19 km/h 24 km/h 46% 0.00 mm 0.00 W/m2 unknown
14:23 25.0 °C 13.0 °C 1019.6 hPa West 14 km/h 21 km/h 45% 0.00 mm 0.00 W/m2 unknown
14:29 26.0 °C 13.0 °C 1019.3 hPa SSW 14 km/h 18 km/h 46% 0.00 mm 0.00 W/m2 unknown
14:34 26.0 °C 13.0 °C 1019.3 hPa WNW 24 km/h 24 km/h 44% 0.00 mm 0.00 W/m2 unknown
14:39 26.0 °C 12.0 °C 1019.6 hPa WNW 23 km/h 29 km/h 44% 0.00 mm 0.00 W/m2 unknown
14:44 26.0 °C 12.0 °C 1019.3 hPa West 24 km/h 29 km/h 44% 0.00 mm 0.00 W/m2 unknown
14:49 25.0 °C 12.0 °C 1019.6 hPa WNW 19 km/h 24 km/h 44% 0.00 mm 0.00 W/m2 unknown
14:54 25.0 °C 13.0 °C 1019.6 hPa WNW 32 km/h 32 km/h 45% 0.00 mm 0.00 W/m2 unknown
14:58 25.0 °C 12.0 °C 1019.6 hPa WNW 11 km/h 32 km/h 44% 0.00 mm 0.00 W/m2 unknown
15:04 25.0 °C 12.0 °C 1019.6 hPa West 19 km/h 34 km/h 44% 0.00 mm 0.00 W/m2 unknown
15:09 26.0 °C 13.0 °C 1019.3 hPa NW 19 km/h 19 km/h 45% 0.00 mm 0.00 W/m2 unknown
15:14 26.0 °C 13.0 °C 1019.3 hPa NNW 16 km/h 19 km/h 45% 0.00 mm 0.00 W/m2 unknown
15:19 26.0 °C 13.0 °C 1019.3 hPa WNW 19 km/h 19 km/h 44% 0.00 mm 0.00 W/m2 unknown
15:24 26.0 °C 13.0 °C 1019.3 hPa NW 19 km/h 24 km/h 44% 0.00 mm 0.00 W/m2 unknown
15:29 26.0 °C 13.0 °C 1019.6 hPa West 14 km/h 23 km/h 45% 0.00 mm 0.00 W/m2 unknown
15:34 26.0 °C 13.0 °C 1019.3 hPa NW 26 km/h 26 km/h 45% 0.00 mm 0.00 W/m2 unknown
15:39 26.0 °C 13.0 °C 1019.6 hPa WNW 23 km/h 27 km/h 44% 0.00 mm 0.00 W/m2 unknown
15:44 26.0 °C 13.0 °C 1019.3 hPa SSW 3 km/h 27 km/h 44% 0.00 mm 0.00 W/m2 unknown
15:49 26.0 °C 13.0 °C 1019.3 hPa WNW 11 km/h 23 km/h 44% 0.00 mm 0.00 W/m2 unknown
15:53 26.0 °C 13.0 °C 1019.6 hPa WNW 18 km/h 18 km/h 44% 0.00 mm 0.00 W/m2 unknown
15:59 26.0 °C 13.0 °C 1019.6 hPa NW 14 km/h 23 km/h 43% 0.00 mm 0.00 W/m2 unknown
16:03 26.0 °C 15.0 °C 1019.6 hPa South 14 km/h 14 km/h 51% 0.00 mm 0.00 W/m2 unknown
16:09 25.0 °C 15.0 °C 1019.6 hPa SSE 16 km/h 19 km/h 53% 0.00 mm 0.00 W/m2 unknown
16:14 25.0 °C 15.0 °C 1019.6 hPa SE 10 km/h 16 km/h 54% 0.00 mm 0.00 W/m2 unknown
16:19 25.0 °C 15.0 °C 1019.6 hPa SSE 13 km/h 16 km/h 55% 0.00 mm 0.00 W/m2 unknown
16:24 25.0 °C 15.0 °C 1019.6 hPa SSE 16 km/h 16 km/h 55% 0.00 mm 0.00 W/m2 unknown
16:28 25.0 °C 15.0 °C 1019.6 hPa SE 14 km/h 14 km/h 55% 0.00 mm 0.00 W/m2 unknown
16:34 24.0 °C 15.0 °C 1019.3 hPa ESE 13 km/h 18 km/h 56% 0.00 mm 0.00 W/m2 unknown
16:39 24.0 °C 15.0 °C 1019.6 hPa East 11 km/h 18 km/h 56% 0.00 mm 0.00 W/m2 unknown
16:44 24.0 °C 15.0 °C 1019.3 hPa ESE 11 km/h 18 km/h 56% 0.00 mm 0.00 W/m2 unknown
16:49 24.0 °C 15.0 °C 1019.3 hPa SE 16 km/h 16 km/h 57% 0.00 mm 0.00 W/m2 unknown
16:54 24.0 °C 15.0 °C 1019.3 hPa South 8 km/h 16 km/h 56% 0.00 mm 0.00 W/m2 unknown
16:59 24.0 °C 15.0 °C 1019.3 hPa South 14 km/h 18 km/h 56% 0.00 mm 0.00 W/m2 unknown
17:04 24.0 °C 15.0 °C 1019.3 hPa SE 11 km/h 18 km/h 56% 0.00 mm 0.00 W/m2 unknown
17:09 25.0 °C 15.0 °C 1019.3 hPa SE 13 km/h 13 km/h 55% 0.00 mm 0.00 W/m2 unknown
17:14 25.0 °C 15.0 °C 1019.3 hPa SSE 18 km/h 18 km/h 55% 0.00 mm 0.00 W/m2 unknown
17:19 25.0 °C 15.0 °C 1019.3 hPa South 14 km/h 18 km/h 54% 0.00 mm 0.00 W/m2 unknown
17:24 25.0 °C 15.0 °C 1019.3 hPa South 6 km/h 18 km/h 54% 0.00 mm 0.00 W/m2 unknown
17:29 25.0 °C 15.0 °C 1019.0 hPa South 14 km/h 16 km/h 53% 0.00 mm 0.00 W/m2 unknown
17:34 25.0 °C 15.0 °C 1019.0 hPa South 16 km/h 16 km/h 54% 0.00 mm 0.00 W/m2 unknown
17:39 25.0 °C 16.0 °C 1019.0 hPa South 18 km/h 18 km/h 55% 0.00 mm 0.00 W/m2 unknown
17:43 25.0 °C 15.0 °C 1019.0 hPa SSW 14 km/h 18 km/h 54% 0.00 mm 0.00 W/m2 unknown
17:49 25.0 °C 15.0 °C 1019.0 hPa South 13 km/h 16 km/h 55% 0.00 mm 0.00 W/m2 unknown
17:54 25.0 °C 15.0 °C 1019.0 hPa South 23 km/h 23 km/h 56% 0.00 mm 0.00 W/m2 unknown
17:59 24.0 °C 15.0 °C 1019.0 hPa South 26 km/h 26 km/h 56% 0.00 mm 0.00 W/m2 unknown
18:04 24.0 °C 15.0 °C 1019.0 hPa South 19 km/h 26 km/h 57% 0.00 mm 0.00 W/m2 unknown
18:05 24.0 °C 14.0 °C 1019.0 hPa SSW 5 km/h 26 km/h 56% 0.00 mm 0.00 W/m2 unknown
18:14 24.0 °C 15.0 °C 1019.0 hPa South 19 km/h 26 km/h 57% 0.00 mm 0.00 W/m2 unknown
18:19 24.0 °C 15.0 °C 1019.0 hPa SSW 16 km/h 23 km/h 57% 0.00 mm 0.00 W/m2 unknown
18:24 24.0 °C 15.0 °C 1019.0 hPa SSW 16 km/h 19 km/h 57% 0.00 mm 0.00 W/m2 unknown
18:29 24.0 °C 15.0 °C 1019.0 hPa SSW 14 km/h 16 km/h 57% 0.00 mm 0.00 W/m2 unknown
18:34 24.0 °C 15.0 °C 1019.0 hPa SW 19 km/h 19 km/h 57% 0.00 mm 0.00 W/m2 unknown
18:38 24.0 °C 15.0 °C 1019.0 hPa SSW 8 km/h 14 km/h 57% 0.00 mm 0.00 W/m2 unknown
18:44 24.0 °C 15.0 °C 1019.0 hPa SSW 10 km/h 14 km/h 58% 0.00 mm 0.00 W/m2 unknown
18:49 24.0 °C 15.0 °C 1019.0 hPa SW 10 km/h 14 km/h 58% 0.00 mm 0.00 W/m2 unknown
18:54 24.0 °C 15.0 °C 1019.0 hPa SSW 18 km/h 18 km/h 58% 0.00 mm 0.00 W/m2 unknown
18:59 24.0 °C 15.0 °C 1019.0 hPa SW 19 km/h 19 km/h 57% 0.00 mm 0.00 W/m2 unknown
19:04 24.0 °C 15.0 °C 1019.3 hPa SSW 19 km/h 19 km/h 57% 0.00 mm 0.00 W/m2 unknown
19:09 24.0 °C 15.0 °C 1019.3 hPa SSW 16 km/h 19 km/h 57% 0.00 mm 0.00 W/m2 unknown
19:13 24.0 °C 15.0 °C 1019.3 hPa SSW 16 km/h 16 km/h 56% 0.00 mm 0.00 W/m2 unknown
19:19 24.0 °C 15.0 °C 1019.3 hPa South 19 km/h 21 km/h 56% 0.00 mm 0.00 W/m2 unknown
19:24 24.0 °C 15.0 °C 1019.3 hPa South 18 km/h 21 km/h 56% 0.00 mm 0.00 W/m2 unknown
19:29 24.0 °C 15.0 °C 1019.3 hPa SSW 19 km/h 21 km/h 57% 0.00 mm 0.00 W/m2 unknown
19:33 24.0 °C 15.0 °C 1019.6 hPa SSW 18 km/h 19 km/h 57% 0.00 mm 0.00 W/m2 unknown
19:39 24.0 °C 15.0 °C 1019.6 hPa South 16 km/h 19 km/h 57% 0.00 mm 0.00 W/m2 unknown
19:44 24.0 °C 15.0 °C 1019.6 hPa South 18 km/h 18 km/h 57% 0.00 mm 0.00 W/m2 unknown
19:49 24.0 °C 15.0 °C 1019.6 hPa South 18 km/h 19 km/h 57% 0.00 mm 0.00 W/m2 unknown
19:54 24.0 °C 15.0 °C 1019.6 hPa SSW 14 km/h 19 km/h 57% 0.00 mm 0.00 W/m2 unknown
19:59 24.0 °C 15.0 °C 1019.6 hPa South 11 km/h 14 km/h 57% 0.00 mm 0.00 W/m2 unknown
20:04 24.0 °C 15.0 °C 1019.6 hPa SW 14 km/h 14 km/h 57% 0.00 mm 0.00 W/m2 unknown
20:09 23.0 °C 15.0 °C 1019.6 hPa SW 14 km/h 14 km/h 58% 0.00 mm 0.00 W/m2 unknown
20:14 23.0 °C 15.0 °C 1020.0 hPa SW 14 km/h 14 km/h 58% 0.00 mm 0.00 W/m2 unknown
20:19 23.0 °C 15.0 °C 1020.0 hPa SW 13 km/h 14 km/h 58% 0.00 mm 0.00 W/m2 unknown
20:24 23.0 °C 15.0 °C 1020.0 hPa SSW 18 km/h 18 km/h 59% 0.00 mm 0.00 W/m2 unknown
20:29 23.0 °C 15.0 °C 1020.0 hPa WSW 8 km/h 18 km/h 60% 0.00 mm 0.00 W/m2 unknown
20:34 23.0 °C 15.0 °C 1020.3 hPa SSW 11 km/h 14 km/h 60% 0.00 mm 0.00 W/m2 unknown
20:39 23.0 °C 15.0 °C 1020.3 hPa SW 13 km/h 13 km/h 60% 0.00 mm 0.00 W/m2 unknown
20:44 23.0 °C 15.0 °C 1020.3 hPa SW 11 km/h 13 km/h 61% 0.00 mm 0.00 W/m2 unknown
20:49 23.0 °C 15.0 °C 1020.3 hPa SW 8 km/h 13 km/h 61% 0.00 mm 0.00 W/m2 unknown
20:54 23.0 °C 15.0 °C 1020.3 hPa WSW 10 km/h 10 km/h 62% 0.00 mm 0.00 W/m2 unknown
20:59 22.0 °C 15.0 °C 1020.3 hPa SW 6 km/h 10 km/h 63% 0.00 mm 0.00 W/m2 unknown
21:04 22.0 °C 15.0 °C 1020.3 hPa SW 5 km/h 8 km/h 63% 0.00 mm 0.00 W/m2 unknown
21:09 22.0 °C 15.0 °C 1020.3 hPa SW 3 km/h 5 km/h 64% 0.00 mm 0.00 W/m2 unknown
21:14 22.0 °C 15.0 °C 1020.7 hPa SW 3 km/h 6 km/h 66% 0.00 mm 0.00 W/m2 unknown
21:19 21.0 °C 15.0 °C 1020.7 hPa SW 5 km/h 5 km/h 66% 0.00 mm 0.00 W/m2 unknown
21:24 21.0 °C 15.0 °C 1020.3 hPa SW 3 km/h 5 km/h 66% 0.00 mm 0.00 W/m2 unknown
21:29 21.0 °C 15.0 °C 1020.3 hPa SW 2 km/h 5 km/h 67% 0.00 mm 0.00 W/m2 unknown
21:34 21.0 °C 15.0 °C 1020.7 hPa SW 3 km/h 3 km/h 68% 0.00 mm 0.00 W/m2 unknown
21:39 20.0 °C 14.0 °C 1020.7 hPa WSW 5 km/h 5 km/h 69% 0.00 mm 0.00 W/m2 unknown
21:44 20.0 °C 14.0 °C 1020.7 hPa West 5 km/h 5 km/h 70% 0.00 mm 0.00 W/m2 unknown
21:49 20.0 °C 14.0 °C 1020.7 hPa West 3 km/h 6 km/h 71% 0.00 mm 0.00 W/m2 unknown
21:54 20.0 °C 14.0 °C 1020.7 hPa WNW 6 km/h 6 km/h 72% 0.00 mm 0.00 W/m2 unknown
21:58 19.0 °C 14.0 °C 1020.7 hPa WNW 8 km/h 8 km/h 72% 0.00 mm 0.00 W/m2 unknown
22:04 19.0 °C 14.0 °C 1020.7 hPa WNW 8 km/h 8 km/h 72% 0.00 mm 0.00 W/m2 unknown
22:09 19.0 °C 14.0 °C 1021.0 hPa WNW 6 km/h 8 km/h 73% 0.00 mm 0.00 W/m2 unknown
22:14 19.0 °C 14.0 °C 1021.0 hPa WNW 8 km/h 8 km/h 74% 0.00 mm 0.00 W/m2 unknown
22:19 19.0 °C 14.0 °C 1021.0 hPa WNW 8 km/h 8 km/h 74% 0.00 mm 0.00 W/m2 unknown
22:24 19.0 °C 14.0 °C 1021.0 hPa WNW 8 km/h 8 km/h 73% 0.00 mm 0.00 W/m2 unknown
22:29 19.0 °C 14.0 °C 1021.0 hPa WNW 8 km/h 8 km/h 73% 0.00 mm 0.00 W/m2 unknown
22:34 19.0 °C 14.0 °C 1021.0 hPa WNW 6 km/h 8 km/h 73% 0.00 mm 0.00 W/m2 unknown
22:39 19.0 °C 14.0 °C 1021.0 hPa WNW 5 km/h 6 km/h 74% 0.00 mm 0.00 W/m2 unknown
22:44 19.0 °C 14.0 °C 1021.0 hPa WNW 6 km/h 6 km/h 75% 0.00 mm 0.00 W/m2 unknown
22:48 18.0 °C 14.0 °C 1021.0 hPa WNW 6 km/h 6 km/h 76% 0.00 mm 0.00 W/m2 unknown
22:54 18.0 °C 14.0 °C 1021.3 hPa WNW 6 km/h 6 km/h 76% 0.00 mm 0.00 W/m2 unknown
22:59 18.0 °C 14.0 °C 1021.3 hPa WNW 6 km/h 8 km/h 76% 0.00 mm 0.00 W/m2 unknown
23:04 18.0 °C 14.0 °C 1021.3 hPa WNW 6 km/h 8 km/h 76% 0.00 mm 0.00 W/m2 unknown
23:09 18.0 °C 14.0 °C 1021.3 hPa WNW 5 km/h 6 km/h 77% 0.00 mm 0.00 W/m2 unknown
23:14 18.0 °C 14.0 °C 1021.3 hPa WNW 3 km/h 5 km/h 78% 0.00 mm 0.00 W/m2 unknown
23:19 17.0 °C 14.0 °C 1021.3 hPa WNW 2 km/h 3 km/h 79% 0.00 mm 0.00 W/m2 unknown
23:24 17.0 °C 14.0 °C 1021.3 hPa Calm   3 km/h 79% 0.00 mm 0.00 W/m2 unknown
23:29 17.0 °C 14.0 °C 1021.3 hPa WNW 3 km/h 3 km/h 80% 0.00 mm 0.00 W/m2 unknown
23:34 17.0 °C 13.0 °C 1021.3 hPa WNW 3 km/h 3 km/h 80% 0.00 mm 0.00 W/m2 unknown
23:39 17.0 °C 14.0 °C 1021.3 hPa Calm   5 km/h 80% 0.00 mm 0.00 W/m2 unknown
23:44 17.0 °C 14.0 °C 1021.3 hPa Calm   5 km/h 80% 0.00 mm 0.00 W/m2 unknown
23:49 17.0 °C 14.0 °C 1021.3 hPa Calm   2 km/h 81% 0.00 mm 0.00 W/m2 unknown
23:50 17.0 °C 13.0 °C 1021.3 hPa Calm   2 km/h 81% 0.00 mm 0.00 W/m2 unknown
23:55 17.0 °C 14.0 °C 1021.7 hPa WNW 2 km/h 3 km/h 81% 0.00 mm 0.00 W/m2 unknown
Datos historicos para Xert